{"data":{"norad_id":61518,"intl_designator":"2024-183K","name":"STARLINK-32172","alt_names":[],"object_type":"PAYLOAD","status":"ACTIVE","operator":null,"country":"US","launch_date":"2024-10-15","launch_site_code":"AFETR","launch_vehicle":null,"mission":null,"orbit_class":"UNKNOWN","rcs_meters":null,"size_class":null,"mass_kg":null,"dimensions":null,"purposes":["comms"],"wikipedia_slug":null,"has_3d_model":false,"image_url":null,"decayed_at":null,"tle_current":{"epoch":"2026-05-25T05:04:49.878624Z","epoch_age_seconds":50793,"freshness":"FRESH","line1":"1 61518U 24183K   26145.21168841  .00000339  00000+0  22698-4 0  9993","line2":"2 61518  53.1601 146.6258 0001198  76.0010 284.1124 15.31702817 91371","mean_motion":15.31702817,"eccentricity":0.0001198,"inclination_deg":53.1601,"raan_deg":146.6258,"arg_perigee_deg":76.001,"mean_anomaly_deg":284.1124,"bstar":2.2698e-5,"rev_number":9137,"period_min":94.013015058652,"perigee_km":469.91110345007,"apogee_km":471.55209236613,"semimajor_km":6848.8685979081,"source":"CELESTRAK","updated_at":"2026-05-25T13:38:19.392463Z"}}}